Weather History for Prestonsburg, KY

Change the Weather History Date:

Monday, February 18, 2013

  Actual Average (KJKL) Record (KJKL)
Temperature  
Mean Temperature 38 °F 40 °F  
Max Temperature 57 °F 49 °F 70 °F (1986)
Min Temperature 20 °F 31 °F 6 °F (1993)
Degree Days  
Heating Degree Days 26 26  
Month to date heating degree days 494  
Since 1 July heating degree days 3060  
Cooling Degree Days 0 0  
Month to date cooling degree days 0  
Year to date cooling degree days 0  
Moisture  
Dew Point 21 °F    
Average Humidity 46    
Maximum Humidity 64    
Minimum Humidity 35    
Precipitation  
Precipitation 0.00 in 0.13 in 1.32 in (2000)
Month to date precipitation 2.39  
Year to date precipitation 6.00  
Snow  
Snow 0.00 in 0.30 in - ()
Month to date snowfall 5.0  
Since 1 July snowfall 17.6  
Snow Depth -    
Sea Level Pressure  
Sea Level Pressure 30.11 in    
Wind  
Wind Speed 7 mph (SSE)    
Max Wind Speed 17 mph    
Max Gust Speed 22 mph    
Visibility 10 miles    
Events      
T = Trace of Precipitation, MM = Missing Value Source: NWS Daily Summary

Daily Weather History Graph

Daily Weather History Graph

Search for Another Location

Airport:

Trip Planner

Search our weather history database for the weather conditions in past years. The results will help you decide how hot, cold, wet, or windy it might be!

Date:

Astronomy

Feb. 18, 2013 Rise Set
Actual Time 7:16 AM EST 6:13 PM EST
Civil Twilight 6:49 AM EST 6:39 PM EST
Nautical Twilight 6:18 AM EST 7:10 PM EST
Astronomical Twilight 5:48 AM EST 7:40 PM EST
Moon 12:01 PM EST (2/18) 1:52 AM EST (2/18)
Length of Visible Light 11h 50m
Length of Day
10h 56m
First Quarter, 58% of the Moon is Illuminated
Feb 18
First Quarter
Feb 25
Full
Mar 4
Last Quarter
Mar 11
New
Mar 19
First Quarter

Hourly Weather History & Observations

Time (EST) Temp. Windchill Dew Point Humidity Pressure Visibility Wind Dir Wind Speed Gust Speed Precip Events Conditions
12:15 AM 23.0 °F 18.4 °F 9.3 °F 56% 30.23 in 10.0 mi ESE 3.5 mph - N/A   Clear
12:35 AM 22.5 °F 17.8 °F 9.1 °F 57% 30.23 in 10.0 mi SE 3.5 mph - N/A   Clear
12:55 AM 22.8 °F 16.7 °F 7.7 °F 52% 30.22 in 10.0 mi ESE 4.6 mph - N/A   Clear
1:15 AM 21.9 °F 17.2 °F 8.1 °F 55% 30.23 in 10.0 mi ESE 3.5 mph - N/A   Clear
1:55 AM 20.8 °F 14.4 °F 10.4 °F 64% 30.23 in 10.0 mi ESE 4.6 mph - N/A   Clear
2:15 AM 21.0 °F 16.2 °F 10.0 °F 63% 30.23 in 10.0 mi ESE 3.5 mph - N/A   Clear
2:35 AM 20.1 °F 15.2 °F 9.9 °F 64% 30.22 in 10.0 mi ESE 3.5 mph - N/A   Clear
2:55 AM 21.4 °F - 9.9 °F 61% 30.23 in 10.0 mi Calm Calm - N/A   Clear
3:15 AM 22.1 °F - 9.1 °F 58% 30.23 in 10.0 mi Calm Calm - N/A   Clear
3:35 AM 21.7 °F 15.5 °F 9.1 °F 58% 30.23 in 10.0 mi SSE 4.6 mph - N/A   Clear
3:55 AM 21.7 °F 17.0 °F 9.7 °F 60% 30.23 in 10.0 mi SE 3.5 mph - N/A   Clear
4:15 AM 21.2 °F 16.4 °F 9.9 °F 62% 30.22 in 10.0 mi ESE 3.5 mph - N/A   Clear
4:35 AM 21.2 °F 16.4 °F 10.4 °F 63% 30.22 in 10.0 mi SE 3.5 mph - N/A   Clear
4:55 AM 22.1 °F 17.4 °F 10.6 °F 61% 30.23 in 10.0 mi SE 3.5 mph - N/A   Clear
5:15 AM 22.5 °F 14.1 °F 11.1 °F 62% 30.23 in 10.0 mi SSE 6.9 mph - N/A   Clear
5:35 AM 24.1 °F 17.0 °F 10.2 °F 56% 30.23 in 10.0 mi SSE 5.8 mph - N/A   Clear
5:55 AM 23.7 °F 19.3 °F 10.8 °F 58% 30.23 in 10.0 mi SE 3.5 mph - N/A   Clear
6:15 AM 23.7 °F - 10.9 °F 58% 30.23 in 10.0 mi Calm Calm - N/A   Clear
6:35 AM 23.2 °F 16.0 °F 11.7 °F 61% 30.22 in 10.0 mi SE 5.8 mph - N/A   Clear
6:55 AM 24.3 °F 18.4 °F 11.8 °F 59% 30.22 in 10.0 mi SSE 4.6 mph - N/A   Clear
7:15 AM 23.9 °F 16.8 °F 12.2 °F 61% 30.22 in 10.0 mi SE 5.8 mph - N/A   Clear
7:35 AM 24.8 °F 17.9 °F 13.1 °F 61% 30.22 in 10.0 mi SSE 5.8 mph - N/A   Clear
7:55 AM 25.7 °F 18.0 °F 13.1 °F 59% 30.21 in 10.0 mi SSE 6.9 mph - N/A   Clear
8:15 AM 27.5 °F 20.2 °F 13.8 °F 56% 30.22 in 10.0 mi SSE 6.9 mph - N/A   Clear
8:35 AM 29.5 °F 22.5 °F 14.4 °F 53% 30.21 in 10.0 mi SSE 6.9 mph - N/A   Clear
8:55 AM 31.8 °F 24.6 °F 15.6 °F 51% 30.21 in 10.0 mi SSE 8.1 mph - N/A   Clear
9:15 AM 32.9 °F 25.9 °F 15.6 °F 49% 30.21 in 10.0 mi SSE 8.1 mph - N/A   Clear
9:35 AM 34.7 °F 28.8 °F 16.2 °F 47% 30.21 in 10.0 mi SSE 6.9 mph - N/A   Clear
9:55 AM 37.0 °F 31.0 °F 17.4 °F 45% 30.21 in 10.0 mi SSE 8.1 mph - N/A   Clear
10:15 AM 38.3 °F 33.2 °F 18.0 °F 44% 30.20 in 10.0 mi SSE 6.9 mph - N/A   Clear
10:35 AM 39.6 °F 34.7 °F 18.7 °F 43% 30.20 in 10.0 mi South 6.9 mph - N/A   Clear
10:55 AM 42.3 °F 36.8 °F 19.9 °F 41% 30.19 in 10.0 mi South 9.2 mph - N/A   Clear
11:15 AM 43.7 °F 38.6 °F 21.2 °F 41% 30.19 in 10.0 mi South 9.2 mph - N/A   Clear
11:35 AM 46.6 °F - 22.5 °F 39% 30.18 in 10.0 mi South 10.4 mph - N/A   Clear
11:55 AM 48.6 °F - 23.7 °F 38% 30.17 in 10.0 mi SSW 13.8 mph 18.4 mph N/A   Clear
12:15 PM 49.6 °F - 24.8 °F 38% 30.16 in 10.0 mi SSW 11.5 mph - N/A   Clear
12:35 PM 51.1 °F - 25.5 °F 37% 30.15 in 10.0 mi South 10.4 mph - N/A   Clear
12:55 PM 52.7 °F - 26.8 °F 37% 30.14 in 10.0 mi SSW 9.2 mph - N/A   Clear
1:15 PM 54.3 °F - 28.2 °F 37% 30.12 in 10.0 mi South 9.2 mph - N/A   Clear
1:35 PM 55.2 °F - 29.3 °F 37% 30.10 in 10.0 mi SW 10.4 mph 18.4 mph N/A   Clear
1:55 PM 56.3 °F - 30.4 °F 37% 30.09 in 10.0 mi South 12.7 mph 18.4 mph N/A   Clear
2:15 PM 56.3 °F - 30.7 °F 38% 30.08 in 10.0 mi SW 15.0 mph 18.4 mph N/A   Clear
2:35 PM 56.3 °F - 30.6 °F 38% 30.08 in 10.0 mi SW 11.5 mph 16.1 mph N/A   Clear
2:55 PM 57.0 °F - 30.9 °F 37% 30.07 in 10.0 mi SSW 9.2 mph 18.4 mph N/A   Clear
3:15 PM 57.6 °F - 31.1 °F 37% 30.07 in 10.0 mi SSW 12.7 mph 18.4 mph N/A   Clear
3:35 PM 57.9 °F - 30.9 °F 36% 30.06 in 10.0 mi SSW 11.5 mph 17.3 mph N/A   Clear
3:55 PM 57.0 °F - 30.4 °F 36% 30.06 in 10.0 mi SSW 8.1 mph - N/A   Clear
4:15 PM 57.9 °F - 30.6 °F 35% 30.06 in 10.0 mi SW 11.5 mph 17.3 mph N/A   Clear
4:35 PM 57.4 °F - 29.5 °F 35% 30.05 in 10.0 mi SSW 11.5 mph 17.3 mph N/A   Clear
4:55 PM 57.2 °F - 29.3 °F 35% 30.04 in 10.0 mi South 10.4 mph - N/A   Clear
5:15 PM 55.8 °F - 29.1 °F 36% 30.04 in 10.0 mi South 10.4 mph - N/A   Clear
5:35 PM 54.5 °F - 28.6 °F 37% 30.03 in 10.0 mi South 11.5 mph - N/A   Clear
5:55 PM 53.8 °F - 28.4 °F 38% 30.02 in 10.0 mi South 11.5 mph - N/A   Clear
6:15 PM 53.2 °F - 27.9 °F 38% 30.02 in 10.0 mi South 10.4 mph - N/A   Clear
6:35 PM 52.7 °F - 27.3 °F 38% 30.00 in 10.0 mi South 11.5 mph 18.4 mph N/A   Clear
6:55 PM 52.2 °F - 27.1 °F 38% 30.00 in 10.0 mi South 10.4 mph - N/A   Clear
7:15 PM 51.3 °F - 27.5 °F 40% 29.99 in 10.0 mi South 10.4 mph - N/A   Clear
7:35 PM 50.9 °F - 27.5 °F 40% 29.99 in 10.0 mi South 9.2 mph - N/A   Clear
7:55 PM 50.9 °F - 27.5 °F 40% 29.99 in 10.0 mi South 10.4 mph - N/A   Clear
8:15 PM 50.5 °F - 27.9 °F 42% 29.97 in 10.0 mi South 12.7 mph - N/A   Clear
8:35 PM 50.7 °F - 28.2 °F 42% 29.96 in 10.0 mi South 12.7 mph - N/A   Clear
8:55 PM 50.2 °F - 28.4 °F 43% 29.95 in 10.0 mi South 10.4 mph - N/A   Scattered Clouds
9:15 PM 50.4 °F - 28.4 °F 43% 29.95 in 10.0 mi South 11.5 mph 17.3 mph N/A   Clear
9:35 PM 50.0 °F - 28.2 °F 43% 29.93 in 10.0 mi SSE 10.4 mph 18.4 mph N/A   Clear
9:55 PM 50.2 °F - 27.1 °F 41% 29.92 in 10.0 mi South 16.1 mph - N/A   Clear
10:15 PM 50.0 °F - 26.2 °F 40% 29.90 in 10.0 mi South 13.8 mph 19.6 mph N/A   Mostly Cloudy
10:35 PM 50.0 °F - 25.3 °F 38% 29.90 in 10.0 mi South 16.1 mph 21.9 mph N/A   Mostly Cloudy
10:55 PM 49.3 °F - 25.3 °F 39% 29.90 in 10.0 mi South 12.7 mph - N/A   Clear
11:15 PM 49.6 °F - 24.8 °F 38% 29.88 in 10.0 mi South 17.3 mph 20.7 mph N/A   Clear
11:35 PM 49.5 °F - 24.6 °F 38% 29.87 in 10.0 mi South 17.3 mph 21.9 mph N/A   Clear
11:55 PM 49.3 °F - 24.6 °F 38% 29.86 in 10.0 mi South 15.0 mph 20.7 mph N/A   Clear